User: anonymous   Login
Location: Irma
(52.9170°N, 111.2330°W)
Time: 17:05:23
(UTC-06:00)
Language:

deb Chang Zheng 4 - Orbit

View from above orbital plane
View from above orbital plane
View from above satellite
View from above satellite

Ground track
Ground track

The orbit data is extracted from the following two-line orbital elements,

1 20847U 90081K   16177.22178209  .00002285  00000-0  31949-3 0  9998
2 20847  98.5613  32.8827 0018689 119.7100 240.5972 14.78582034353020
Epoch (UTC): 25 June 2016 05:19:21
Eccentricity: 0.0018689
inclination: 98.5613°
perigee height: 621 km
apogee height: 647 km
right ascension of ascending node: 32.8827°
argument of perigee: 119.7100°
revolutions per day: 14.78582034
mean anomaly at epoch: 240.5972°
orbit number at epoch: 35302

The dashed part of the orbit path shows where the satellite is in the earth's shadow,  

DLR